Kenai, AK

1:10 PM AKDT on May 29, 2017 (GMT -0800)
Kenai Municipal

Weather History for PAEN - August, 2014

Change the Weather History Date:

Monday, August 4, 2014

  Actual Average Record
Temperature  
Mean Temperature 58 °F -  
Max Temperature 66 °F 63 °F 77 °F (2015)
Min Temperature 50 °F 48 °F 36 °F (2003)
Degree Days  
Heating Degree Days 7    
Growing Degree Days 8 (Base 50)    
Moisture  
Dew Point 53 °F    
Average Humidity 90    
Maximum Humidity 100    
Minimum Humidity 58    
Precipitation  
Precipitation 0.29 in - - ()
Sea Level Pressure  
Sea Level Pressure 29.76 in    
Wind  
Wind Speed 5 mph (NNE)    
Max Wind Speed 15 mph    
Max Gust Speed 22 mph    
Visibility 9 miles    
Events Rain    
Averages and records for this station are not official NWS values.
T = Trace of Precipitation, MM = Missing Value Source: NWS Daily Summary

Daily Weather History Graph

Daily Weather History Graph

Search for Another Location

Airport or City:

Trip Planner

Search our weather history database for the weather conditions in past years. The results will help you decide how hot, cold, wet, or windy it might be!

Date:

Astronomy

Aug. 04, 2014 Rise Set
Actual Time 5:49 AM AKDT 10:30 PM AKDT
Civil Twilight 4:49 AM AKDT 11:29 PM AKDT
Nautical Twilight 2:41 AM AKDT 1:27 AM AKDT
Astronomical Twilight Sun does not set Sun does not set
Moon 4:49 PM AKDT (8/4) 12:18 AM AKDT (8/4)
Length of Visible Light 18h 40m
Length of Day
16h 40m
First Quarter, 59% of the Moon is Illuminated
Aug 4
First Quarter
Aug 10
Full
Aug 17
Last Quarter
Aug 25
New
Sep 2
First Quarter

Hourly Weather History & Observations

Time (AKDT) Temp. Dew Point Humidity Pressure Visibility Wind Dir Wind Speed Gust Speed Precip Events Conditions
12:53 AM 54.0 °F 53.1 °F 97% 29.90 in 10.0 mi SE 4.6 mph - N/A   Mostly Cloudy
1:53 AM 53.1 °F 52.0 °F 96% 29.88 in 10.0 mi South 4.6 mph - N/A   Scattered Clouds
2:53 AM 53.1 °F 52.0 °F 96% 29.86 in 10.0 mi Calm Calm - N/A   Clear
3:53 AM 51.1 °F 50.0 °F 96% 29.86 in 10.0 mi East 3.5 mph - N/A   Clear
4:21 AM 50.0 °F 50.0 °F 100% 29.84 in 10.0 mi Calm Calm - N/A   Partly Cloudy
4:46 AM 50.0 °F 48.2 °F 94% 29.83 in 10.0 mi East 3.5 mph - N/A   Mostly Cloudy
4:53 AM 50.0 °F 50.0 °F 100% 29.83 in 10.0 mi ENE 3.5 mph - N/A   Mostly Cloudy
5:29 AM 50.0 °F 50.0 °F 100% 29.81 in 10.0 mi Calm Calm - N/A   Overcast
5:53 AM 51.1 °F 50.0 °F 96% 29.80 in 10.0 mi Calm Calm - N/A   Overcast
6:32 AM 51.8 °F 50.0 °F 94% 29.79 in 10.0 mi North 3.5 mph - N/A   Overcast
6:44 AM 51.8 °F 51.8 °F 100% 29.79 in 10.0 mi Calm Calm - N/A   Overcast
6:53 AM 52.0 °F 51.1 °F 97% 29.79 in 10.0 mi Calm Calm - N/A   Overcast
7:53 AM 53.1 °F 52.0 °F 96% 29.78 in 8.0 mi Calm Calm - 0.04 in Rain Light Rain
8:01 AM 53.6 °F 53.6 °F 100% 29.77 in 6.0 mi Calm Calm - 0.00 in Rain Light Rain
8:53 AM 54.0 °F 54.0 °F 100% 29.77 in 4.0 mi Calm Calm - 0.08 in Rain Light Rain
9:53 AM 55.9 °F 55.0 °F 97% 29.75 in 7.0 mi Calm Calm - 0.04 in Rain Light Rain
10:53 AM 57.0 °F 55.0 °F 93% 29.73 in 5.0 mi NNW 4.6 mph - 0.05 in Rain Light Rain
11:15 AM 57.2 °F 55.4 °F 94% 29.72 in 9.0 mi NNW 5.8 mph - 0.01 in Rain Light Rain
11:53 AM 57.0 °F 55.9 °F 96% 29.72 in 8.0 mi North 6.9 mph - 0.02 in Rain Light Rain
12:00 PM 57.2 °F 55.4 °F 94% 29.71 in 7.0 mi North 5.8 mph - 0.01 in Rain Light Rain
12:53 PM 57.9 °F 55.9 °F 93% 29.71 in 10.0 mi North 9.2 mph - 0.04 in Rain Light Rain
1:07 PM 57.2 °F 55.4 °F 94% 29.70 in 10.0 mi North 11.5 mph - 0.00 in Rain Light Rain
1:49 PM 57.2 °F 55.4 °F 94% 29.70 in 10.0 mi NNE 13.8 mph - 0.01 in Rain Light Rain
1:53 PM 57.9 °F 55.0 °F 90% 29.70 in 10.0 mi North 13.8 mph - 0.01 in Rain Light Rain
2:53 PM 57.9 °F 55.9 °F 93% 29.69 in 10.0 mi North 11.5 mph - 0.00 in Rain Light Rain
3:53 PM 57.9 °F 55.0 °F 90% 29.68 in 10.0 mi North 12.7 mph - 0.00 in Rain Light Rain
4:53 PM 59.0 °F 55.9 °F 90% 29.69 in 10.0 mi North 11.5 mph - 0.01 in   Mostly Cloudy
5:53 PM 60.1 °F 55.9 °F 86% 29.67 in 10.0 mi North 12.7 mph - N/A   Mostly Cloudy
6:53 PM 62.1 °F 55.0 °F 78% 29.68 in 10.0 mi NNE 15.0 mph - N/A   Scattered Clouds
7:53 PM 66.0 °F 52.0 °F 60% 29.68 in 10.0 mi NE 13.8 mph 21.9 mph N/A   Clear
8:53 PM 64.0 °F 48.9 °F 58% 29.70 in 10.0 mi NE 11.5 mph - N/A   Clear
9:53 PM 60.1 °F 48.9 °F 67% 29.70 in 10.0 mi NNE 8.1 mph - N/A   Clear
10:53 PM 57.0 °F 48.0 °F 72% 29.72 in 10.0 mi NE 11.5 mph - N/A   Clear
11:53 PM 54.0 °F 46.0 °F 75% 29.73 in 10.0 mi NE 6.9 mph - N/A   Clear